Flag for Netherlands Weather past 2 weeks in Leerdam, Netherlands

Now
54 °F

Fog.


Feels Like: 53 °F
Forecast: 46 / 59 °F
Wind: 3 mph from Southwest

Location: Gilze-Rijen

Current Time: May 25, 2015 at 4:00:50 AM

Latest Report: May 25, 2015 at 3:25 AM


Visibility: 5 mi

Pressure: 30.01 "Hg

Humidity: 94%

Dew point: 52 °F

Location of LeerdamLocation

Historic Weather in Leerdam — Graph

°F

Leerdam temperature yesterday

Maximum temperature yesterday: 68 °F (at 3:55 PM)
Minimum temperature yesterday: 41 °F (at 5:25 AM)
Average temperature yesterday: 56 °F

Past Weeks' High & Low Weather Summary

 TemperatureHumidityPressure
High79 °F (May 11, 3:25 PM)100% (May 10, 2:25 AM)30.33 "Hg (May 10, 2:25 AM)
Low41 °F (May 10, 6:25 AM)24% (May 24, 6:25 PM)29.62 "Hg (May 18, 8:25 PM)
Average55 °F71%30.08 "Hg
* Reported May 10 2:25 AM — May 25 2:55 AM, Leerdam, Weather by CustomWeather, © 2015

Note: Actual official high and low records may vary slightly from our data, if they occured in-between our weather recording intervals... More about our weather records

Advertising

Leerdam weather history for previous 24 hours

 ConditionsComfort  
Time TempWeatherWind HumidityBarometerVisibility
2:55 AM
Mon, May 25
54 °FOvercast.3 mph94%30.01 "HgN/A
2:25 AM54 °FPassing clouds.2 mph94%30.01 "HgN/A
1:55 AM54 °FPassing clouds.3 mph94%30.04 "HgN/A
1:25 AM54 °FPassing clouds.3 mph94%30.04 "HgN/A
12:55 AM54 °FPassing clouds.3 mph94%30.04 "HgN/A
12:25 AM54 °FLight rain. Overcast.3 mph94%30.04 "HgN/A
11:55 PM
Sun, May 24
54 °FLight rain. Passing clouds.5 mph88%30.04 "HgN/A
11:25 PM55 °FLight rain. Passing clouds.7 mph82%30.04 "HgN/A
10:55 PM57 °FLight rain. Passing clouds.6 mph77%30.04 "HgN/A
10:25 PM59 °FPartly sunny.5 mph63%30.04 "HgN/A
9:55 PM57 °FScattered clouds.5 mph67%30.04 "HgN/A
9:25 PM59 °FCool.5 mph63%30.04 "HgN/A
8:55 PM61 °FRefreshingly cool.9 mph59%30.04 "HgN/A
8:25 PM63 °FPassing clouds.8 mph49%30.04 "HgN/A
7:55 PM63 °FMild.10 mph42%30.04 "HgN/A
7:25 PM64 °FMild.7 mph34%30.04 "HgN/A
6:55 PM68 °FMild.8 mph24%30.04 "HgN/A
6:25 PM68 °FPassing clouds.10 mph24%30.04 "HgN/A
5:55 PM68 °FMild.8 mph28%30.04 "HgN/A
5:25 PM68 °FMild.6 mph33%30.04 "HgN/A
4:55 PM68 °FMild.6 mph33%30.07 "HgN/A
4:25 PM68 °FPassing clouds.6 mph38%30.07 "HgN/A
3:55 PM68 °FMild.5 mph38%30.07 "HgN/A
3:25 PM66 °FPassing clouds.5 mph43%30.07 "HgN/A
2:55 PM66 °FMild.3 mph46%30.07 "HgN/A
2:25 PM64 °FMild.6 mph46%30.09 "HgN/A
1:55 PM64 °FMild.7 mph49%30.09 "HgN/A
1:25 PM63 °FClear.7 mph49%30.09 "HgN/A
12:55 PM63 °FPassing clouds.5 mph49%30.12 "HgN/A
12:25 PM61 °FRefreshingly cool.5 mph55%30.12 "HgN/A
11:55 AM59 °FPassing clouds.5 mph59%30.12 "HgN/A
11:25 AM59 °FPassing clouds.5 mph63%30.12 "HgN/A
10:55 AM59 °FCool.3 mph63%30.12 "HgN/A
10:25 AM57 °FPassing clouds.3 mph67%30.12 "HgN/A
9:55 AM55 °FCool.2 mph67%30.15 "HgN/A
9:25 AM55 °FCool.1 mph67%30.15 "HgN/A
8:55 AM52 °FCool.2 mph72%30.15 "HgN/A
8:25 AM50 °FCool.3 mph76%30.15 "HgN/A
7:55 AM48 °FPartly sunny.5 mph82%30.15 "HgN/A
7:25 AM46 °FCool.3 mph87%30.15 "HgN/A
6:55 AM45 °FOvercast.3 mph93%30.15 "HgN/A
6:25 AM43 °FPassing clouds.3 mph93%30.15 "HgN/A
5:55 AM41 °FPassing clouds.5 mph93%30.15 "HgN/A
5:25 AM41 °FPassing clouds.5 mph93%30.15 "HgN/A
4:55 AM43 °FQuite cool.6 mph87%30.15 "HgN/A
4:25 AM43 °FQuite cool.6 mph93%30.15 "HgN/A
Weather by CustomWeather, © 2015

See weather overviewHow to use our weather pages